Regional Weather Roundup
Issued by NWS

Home | Current Version | Previous Version | Text Only | Print | Product List | Glossary On
Versions: 1 2 3 4 5 6 7 8 9 10 11 12 13 14 15 16 17 18 19 20 21 22 23 24 25 26 27 28 29 30 31 32 33 34 35 36 37 38 39 40 41 42 43 44 45 46 47 48 49 50
000
ASUS45 KREV 021110
RWRNV
NEVADA REGIONAL WEATHER ROUNDUP
NATIONAL WEATHER SERVICE RENO NV
300 AM PST MON MAR 02 2015

NOTE: "FAIR" INDICATES FEW OR NO CLOUDS BELOW 12,000 FEET WITH NO
SIGNIFICANT WEATHER AND/OR OBSTRUCTIONS TO VISIBILITY.

NVZ001-003-004-021200-
WESTERN NEVADA

CITY           SKY/WX    TMP DP  RH WIND       PRES   REMARKS
RENO           CLEAR     27  24  89 S3        29.82F
CARSON CITY    FAIR      25  23  93 CALM      29.83F
MINDEN         FAIR      18  18 100 SE6       29.84
SLIDE MTN        N/A     18  14  86 CALM        N/A
PYRAMID LAKE     N/A     36 N/A N/A SW7         N/A
FALLON         PTCLDY    29  27  92 SE3       29.81F
LOVELOCK       MOCLDY    24  20  84 SE7       29.81F
HAWTHORNE      CLEAR     32  32 100 CALM      29.83F
$$

NVZ002-CAZ072-073-021200-
NORTHERN AND CENTRAL SIERRA

CITY           SKY/WX    TMP DP  RH WIND       PRES   REMARKS
S. LAKE TAHOE  CLEAR     17  10  74 S5        29.81F
TRUCKEE        FOG       14  14 100 CALM      29.82F VSB 1/4
SQUAW VLY 8000   N/A     23  21  93 SW6         N/A
SUSANVILLE     CLEAR     27  23  86 W3        29.81
BLUE CANYON    PTCLDY    34  20  56 S3        29.83F
MAMMOTH LAKES  FAIR      14  14 100 N5        29.79F
BRIDGEPORT     FAIR      20  13  74 CALM      29.77F
$$

NVZ030-031-036-021200-
NORTHERN NEVADA

CITY           SKY/WX    TMP DP  RH WIND       PRES   REMARKS
ELKO           CLEAR     23  17  78 NE5       29.82F
WINNEMUCCA     CLEAR     21  18  88 CALM      29.81F
WENDOVER       CLEAR     25  14  63 NW6       29.86F
$$

NVZ035-037-021200-
CENTRAL NEVADA

CITY           SKY/WX    TMP DP  RH WIND       PRES   REMARKS
ELY            CLOUDY    28  24  85 N6        29.79F
EUREKA           N/A     30  26  85 CALM      29.77F
$$

NVZ013-014-021200-
SOUTH CENTRAL NEVADA

CITY           SKY/WX    TMP DP  RH WIND       PRES   REMARKS
TONOPAH        LGT SNOW  32  30  92 N6        29.79F FOG
$$

NVZ017-020-022-021200-
SOUTHERN NEVADA

CITY           SKY/WX    TMP DP  RH WIND       PRES   REMARKS
LAS VEGAS      CLOUDY    46  42  86 S6        29.79F
N. LAS VEGAS   LGT RAIN  46  39  76 S3        29.82F
NELLIS AFB     CLOUDY    46  45  93 SE5       29.83F
HENDERSON      LGT RAIN  44  41  89 CALM      29.85F
MERCURY        CLOUDY    41  39  93 CALM      29.81F
$$



USA.gov is the U.S. government's official web portal to all federal, state and local government web resources and services.